Wetbulb
61.55 63.97 65.04 58.98 49.96 51.04 42.72 44.52 48.18 48.41 49.42 51.84 54.08 54.68 53.62 54.45 54.55 49.64 65.69 67.09 67.46 67.70 69.20 69.09 69.75 70.13 70.46 70.11 69.89 70.18 69.73 69.09 68.26 67.49 67.66 68.11 68.75 68.73 68.15 67.28 66.85 67.17 68.20 68.29 67.12 67.00 66.80 66.24 65.43
59.23 62.25 57.84 52.68 47.19 44.96 42.48 45.96 48.00 49.90 52.17 53.40 54.72 53.16 53.13 54.41 60.86 62.40 63.27 67.34 67.75 68.09 68.54 68.13 68.98 69.95 70.13 69.69 69.21 69.10 69.08 69.14 68.04 67.56 68.46 68.45 69.05 67.99 67.28 66.39 66.02 66.80 67.21 67.73 67.14 67.05 66.60 66.36 65.98
61.26 58.78 52.23 49.01 47.26 44.25 43.45 47.44 49.47 51.63 53.72 52.52 52.25 55.27 53.99 56.93 60.99 61.66 66.14 67.71 67.85 67.61 67.86 67.69 68.92 69.37 69.11 68.82 68.44 68.30 69.01 69.22 67.98 67.51 67.49 67.98 67.42 66.93 66.66 66.16 65.22 65.55 67.83 67.66 67.82 66.99 66.86 66.53 65.92
56.28 54.95 52.32 46.67 43.77 48.78 48.12 49.57 51.68 51.16 53.18 54.47 55.05 52.79 56.92 61.67 62.50 63.89 66.47 66.84 66.66 66.83 67.30 68.08 69.11 68.85 68.42 68.27 68.17 68.22 69.14 69.16 67.93 67.88 67.51 67.49 67.13 66.64 66.18 66.12 65.66 64.77 65.56 67.66 67.72 67.11 65.44 64.27 63.47
53.76 52.73 46.05 43.52 47.48 48.64 50.58 52.28 52.21 50.78 51.42 52.38 53.97 51.68 54.72 62.53 65.35 65.15 64.70 66.99 66.06 66.06 67.09 67.86 68.74 68.97 68.96 68.47 68.42 68.44 68.22 67.87 67.62 67.56 67.38 67.58 67.44 66.80 66.20 65.79 65.70 65.56 64.90 64.73 64.13 63.79 63.81 63.55 63.14
49.56 52.03 44.24 41.96 45.42 49.57 50.25 52.42 51.75 50.91 51.30 52.20 53.45 53.87 54.49 63.39 63.85 64.05 64.64 66.31 66.84 66.21 67.31 67.71 66.52 67.53 68.33 68.67 68.86 68.45 68.12 67.85 67.83 67.34 67.07 67.41 68.33 67.02 66.33 65.84 65.36 64.90 65.06 64.81 64.20 63.72 63.40 63.39 63.29
48.58 47.10 43.91 43.82 46.77 47.78 50.96 52.83 50.74 50.51 50.05 50.10 55.52 52.23 55.77 60.21 63.72 64.86 64.19 66.49 66.91 67.23 66.78 67.07 67.29 66.65 65.98 66.80 66.94 67.53 67.63 67.29 66.82 67.62 67.20 67.30 67.76 67.85 66.98 66.83 66.09 65.91 65.27 64.87 65.06 64.66 64.30 64.34 64.54
48.82 48.93 43.16 45.68 46.92 47.31 51.63 52.64 52.50 52.91 50.69 54.21 56.67 51.75 52.26 58.72 63.98 64.51 65.31 65.05 65.81 66.52 66.48 66.23 66.48 66.66 66.38 66.12 64.70 65.47 65.85 65.72 65.49 66.01 64.92 64.05 64.43 64.53 64.11 63.36 65.43 65.44 65.66 65.91 65.19 66.45 66.25 66.09 66.10
48.38 43.05 41.89 45.82 47.42 49.13 53.04 52.17 53.61 55.19 53.80 53.65 54.47 54.58 58.31 62.70 63.41 62.12 62.03 64.20 63.98 65.17 65.52 65.76 66.02 66.21 66.15 65.90 64.52 63.39 63.96 63.88 63.49 63.42 62.66 62.18 62.70 64.73 62.95 62.21 63.90 64.59 64.71 64.83 65.26 65.65 65.65 64.86 64.29
44.32 40.04 43.42 48.32 49.02 50.02 51.68 53.02 53.35 52.36 51.84 51.26 54.95 58.93 61.82 62.16 61.24 60.79 60.38 60.61 61.88 62.63 64.06 65.64 65.26 65.13 65.92 67.54 64.96 64.77 65.52 63.97 63.29 62.79 62.06 62.82 63.73 64.33 63.55 60.37 61.06 62.34 62.57 64.02 65.01 65.34 64.06 61.92 60.65
43.92 40.55 46.06 49.36 51.31 52.10 52.33 51.60 53.27 51.52 49.48 52.29 55.24 57.66 59.52 59.50 59.47 59.67 59.80 60.75 61.57 62.76 63.47 64.71 64.62 64.45 64.27 65.50 64.74 65.22 66.43 65.85 65.47 64.95 63.77 64.10 63.33 63.68 63.43 61.57 60.12 59.31 58.81 59.38 60.92 61.15 60.90 59.95 60.14
41.46 45.97 48.88 50.56 50.83 51.26 50.14 51.77 50.76 50.37 50.61 54.82 58.29 59.64 59.12 58.92 59.24 59.34 59.49 60.67 61.51 62.18 62.89 64.05 64.32 64.03 64.03 64.64 64.84 65.59 65.74 64.44 62.90 63.36 63.58 63.17 62.20 61.58 60.97 59.46 59.74 59.67 59.77 58.58 60.13 59.95 60.20 60.27 60.37
44.75 45.77 49.33 49.28 49.72 49.25 50.97 48.70 48.75 49.17 50.93 55.12 57.76 59.62 59.09 58.99 59.18 60.02 60.63 61.56 61.39 61.38 62.37 63.18 63.54 63.66 64.08 63.79 63.74 62.75 63.70 64.13 64.56 65.67 65.89 64.02 62.44 61.36 61.84 62.02 61.99 60.81 61.01 60.60 60.43 60.29 60.41 60.01 60.15
46.67 47.59 48.05 49.20 48.15 48.53 48.28 47.15 48.46 48.95 51.53 53.40 55.52 56.16 57.24 58.54 58.90 58.79 59.21 59.03 59.41 61.15 61.50 62.49 62.90 62.94 63.80 63.50 62.88 62.57 62.74 63.59 65.53 64.68 63.60 63.04 62.80 61.91 62.28 62.77 62.22 62.49 63.16 63.69 62.54 60.91 60.57 60.40 60.52
47.73 43.53 44.72 45.03 46.25 45.37 46.31 42.49 43.93 47.71 51.19 50.80 51.89 53.18 55.68 57.16 58.07 58.00 58.01 58.04 59.17 59.59 58.98 58.09 57.52 58.10 59.05 60.45 61.68 61.60 63.07 62.44 60.77 59.37 58.91 60.29 60.63 60.81 62.01 62.71 62.89 61.74 61.29 61.98 61.72 61.33 61.06 60.31 61.01
42.26 41.51 36.74 42.93 45.89 45.31 42.56 35.96 43.64 47.26 47.83 48.37 49.19 49.79 52.12 55.77 57.09 57.66 57.98 58.61 57.97 56.42 54.07 54.69 56.54 55.36 56.59 57.21 58.80 60.97 60.88 60.21 57.85 56.08 56.05 56.42 57.64 58.73 60.78 60.95 60.92 61.54 63.07 62.95 60.94 59.86 59.16 58.82 58.65
37.05 32.55 35.74 39.48 44.97 44.53 40.82 36.82 43.45 45.27 46.32 45.65 45.83 46.66 50.60 52.34 54.95 54.83 55.35 55.37 55.08 53.84 52.98 52.97 53.41 53.39 54.72 57.92 57.74 57.19 55.27 53.57 52.16 51.65 51.33 51.73 52.57 54.89 56.39 58.91 58.38 59.57 59.04 56.90 55.77 55.09 55.73 56.42 56.43
33.13 33.71 36.06 36.82 41.03 42.79 39.51 39.85 41.04 42.52 44.28 44.21 44.66 45.80 46.79 52.13 52.90 51.89 51.80 52.04 51.68 51.72 51.61 51.59 52.08 52.40 54.33 56.12 56.07 54.65 52.37 50.32 48.50 47.44 48.24 49.29 49.48 50.78 52.44 53.58 52.65 53.85 54.46 52.71 51.68 51.85 53.02 53.90 54.65
38.03 36.77 35.14 35.62 40.89 40.37 39.55 38.75 41.59 43.47 41.85 41.92 43.40 44.89 46.02 50.88 51.58 49.88 50.05 49.71 49.56 49.69 50.02 50.10 50.40 50.83 53.16 54.58 54.30 53.26 50.80 47.84 45.41 44.96 45.91 46.32 47.43 48.29 49.02 49.27 48.19 48.24 49.07 47.35 47.14 48.29 50.16 52.00 52.03
36.72 35.25 33.00 37.16 40.52 37.87 36.08 36.05 38.68 40.84 41.99 42.67 42.62 42.67 44.74 47.37 46.81 47.25 47.34 47.67 48.18 47.74 47.62 48.40 49.22 49.92 51.03 53.70 53.97 52.09 48.56 46.68 44.65 44.01 43.65 44.54 45.28 45.76 45.94 45.55 45.29 44.99 45.05 43.85 43.83 44.68 46.29 49.93 49.25
35.62 34.63 34.33 34.54 37.95 37.09 34.31 32.21 36.22 39.41 41.29 41.41 43.52 43.93 44.29 46.34 45.50 45.17 45.90 45.97 45.88 45.66 45.85 46.65 48.05 49.45 51.01 52.34 51.39 49.89 48.50 46.64 44.88 43.16 42.07 42.98 43.46 43.77 44.19 43.69 43.41 43.11 42.73 41.62 41.30 41.67 42.42 43.43 45.84
33.37 37.11 36.71 35.18 31.03 27.68 32.87 25.70 32.32 36.41 37.57 39.80 41.03 41.76 42.65 42.38 45.74 45.42 44.96 44.42 44.54 43.50 43.85 45.10 46.84 47.81 49.77 51.94 50.89 50.16 48.63 46.36 44.10 41.96 41.53 41.24 41.74 41.53 42.35 41.99 41.34 41.03 40.84 39.74 40.30 40.95 39.94 41.67 38.81
35.25 38.22 36.45 35.00 31.52 28.31 28.94 25.57 29.44 34.34 35.55 38.05 39.07 41.05 42.45 42.04 42.86 44.68 44.56 44.25 42.27 42.14 41.83 42.50 44.31 45.62 47.66 50.17 51.48 47.87 45.64 43.28 42.28 41.43 40.31 39.44 38.91 39.34 39.99 39.99 39.03 39.01 39.45 38.66 38.46 37.82 37.95 38.31 37.29
39.85 37.56 35.97 34.34 30.94 21.45 28.19 27.16 25.43 31.27 34.63 36.61 39.71 40.61 42.06 41.54 41.21 41.89 41.71 41.80 40.54 40.35 40.52 41.00 42.29 43.47 45.60 47.37 47.54 45.14 43.31 41.94 41.14 40.00 38.40 37.19 36.51 36.34 37.20 38.43 37.74 37.77 37.70 37.44 36.89 36.37 35.75 35.38 35.13
37.47 31.27 21.02 18.01 15.75 19.20 27.66 25.68 28.01 32.87 34.65 37.40 38.17 39.64 39.90 40.91 39.64 38.39 38.65 38.48 38.57 38.94 39.23 40.27 41.00 41.25 42.42 42.79 43.87 43.86 42.90 42.00 40.40 38.82 37.60 36.18 35.20 34.54 34.98 36.00 35.74 35.59 36.14 36.48 36.03 34.80 33.71 32.85 32.05
34.80 31.81 23.47 18.68 19.67 21.79 27.12 24.24 30.58 34.64 37.28 38.67 39.13 40.11 40.07 39.68 39.48 38.23 38.26 37.84 37.95 38.95 38.98 39.27 39.00 38.91 39.22 38.97 38.31 38.85 38.91 37.01 36.57 36.20 35.58 34.81 34.21 34.32 34.99 34.83 34.86 34.80 35.16 35.19 34.72 33.88 33.03 31.54 30.53
34.64 29.69 33.13 25.66 19.64 20.53 23.09 27.98 32.58 34.67 34.77 36.30 37.32 38.32 38.40 38.58 38.81 38.75 38.68 37.80 37.71 37.85 37.98 37.64 36.83 36.38 36.51 36.09 35.37 35.19 35.39 35.32 34.73 34.90 34.87 33.70 33.70 34.93 33.70 33.84 33.56 33.57 33.77 33.87 33.12 31.94 30.94 30.47 29.88
35.13 36.23 25.01 22.68 11.40 13.15 19.96 22.91 25.72 31.50 33.86 36.09 36.41 36.79 37.73 38.73 39.31 38.68 38.56 38.01 38.14 37.84 36.63 35.77 35.46 34.82 34.55 34.16 33.67 33.81 33.62 33.88 33.79 33.95 33.05 32.46 32.58 32.96 32.62 32.55 32.42 32.28 32.35 32.53 31.61 30.30 29.97 29.09 28.71
33.38 29.61 30.98 28.47 24.74 19.59 18.10 22.70 31.18 33.09 34.80 35.52 36.79 38.34 38.43 38.42 38.58 38.13 38.19 38.10 38.01 37.17 35.94 34.42 34.08 33.58 33.39 33.74 33.33 33.15 33.16 33.50 33.77 33.06 32.35 31.75 31.70 31.76 31.78 31.86 31.50 31.21 30.68 30.55 29.85 29.27 28.65 27.46 27.13
35.30 31.66 31.67 21.64 22.68 23.03 23.63 23.19 34.98 34.56 36.38 37.61 37.77 39.45 38.88 38.98 38.75 38.70 38.44 37.20 36.21 36.10 35.24 34.03 33.34 33.30 33.59 33.50 33.23 32.78 32.57 32.47 32.04 31.67 31.39 31.29 30.48 30.83 30.77 30.89 30.44 30.14 29.84 28.70 27.99 27.46 27.19 26.33 26.32
MSLP
1011.86 1011.85 1012.14 1012.70 1013.53 1013.38 1013.16 1012.90 1012.51 1012.83 1013.20 1013.46 1013.35 1013.90 1015.42 1016.03 1016.49 1017.92 1018.07 1018.22 1018.81 1019.41 1019.99 1020.34 1020.53 1020.71 1020.84 1021.08 1021.26 1021.40 1021.52 1021.63 1021.76 1021.80 1021.84 1021.88 1021.92 1022.00 1022.14 1022.21 1022.19 1022.09 1022.05 1022.12 1022.36 1022.47 1022.57 1022.62 1022.62
1011.89 1011.90 1012.31 1012.84 1013.46 1013.35 1013.38 1012.82 1013.05 1012.99 1013.28 1013.45 1013.96 1014.72 1015.44 1016.77 1016.73 1017.46 1018.11 1018.57 1018.71 1019.35 1020.01 1020.44 1020.73 1020.97 1021.09 1021.31 1021.53 1021.63 1021.71 1021.79 1021.91 1021.97 1022.05 1022.11 1022.15 1022.29 1022.38 1022.41 1022.42 1022.38 1022.28 1022.34 1022.50 1022.64 1022.72 1022.79 1022.81
1011.71 1011.53 1012.63 1012.95 1013.11 1012.97 1013.15 1013.23 1013.30 1013.43 1013.19 1013.53 1014.41 1015.00 1015.85 1017.00 1017.09 1017.27 1017.77 1018.30 1018.72 1019.39 1020.00 1020.50 1020.77 1021.07 1021.33 1021.53 1021.66 1021.78 1021.79 1021.91 1022.03 1022.13 1022.19 1022.24 1022.35 1022.46 1022.54 1022.60 1022.64 1022.61 1022.54 1022.44 1022.60 1022.73 1022.75 1022.81 1022.84
1011.50 1011.85 1012.53 1012.79 1013.01 1012.01 1012.29 1013.09 1012.99 1013.52 1013.58 1013.66 1014.60 1015.97 1016.50 1016.56 1016.78 1017.09 1017.84 1018.14 1018.77 1019.51 1019.97 1020.48 1020.76 1021.05 1021.36 1021.60 1021.75 1021.85 1021.94 1022.03 1022.13 1022.23 1022.26 1022.31 1022.42 1022.55 1022.64 1022.70 1022.75 1022.75 1022.69 1022.70 1022.73 1022.84 1022.94 1022.93 1022.90
1011.44 1012.09 1012.62 1012.99 1012.37 1012.22 1012.18 1012.53 1012.84 1013.67 1013.80 1014.30 1014.65 1016.53 1017.14 1017.02 1016.80 1017.16 1017.71 1018.30 1019.03 1019.77 1020.07 1020.44 1020.74 1020.99 1021.23 1021.51 1021.71 1021.86 1022.03 1022.14 1022.25 1022.31 1022.33 1022.33 1022.44 1022.58 1022.71 1022.76 1022.83 1022.87 1022.91 1022.93 1022.95 1023.00 1022.99 1022.96 1022.91
1011.71 1012.10 1012.79 1012.93 1012.57 1012.39 1012.31 1012.21 1012.86 1013.60 1013.93 1014.68 1015.50 1016.51 1017.55 1017.43 1017.38 1017.65 1017.93 1018.60 1019.10 1019.79 1020.21 1020.53 1020.85 1021.04 1021.28 1021.49 1021.70 1021.92 1022.07 1022.20 1022.33 1022.39 1022.40 1022.39 1022.39 1022.62 1022.73 1022.81 1022.84 1022.88 1022.92 1022.95 1022.95 1022.96 1023.00 1022.98 1022.90
1011.69 1012.39 1012.75 1012.77 1012.57 1012.30 1012.03 1011.97 1012.75 1013.47 1013.84 1014.39 1014.84 1016.65 1017.61 1017.79 1017.68 1017.74 1018.28 1018.69 1019.23 1019.69 1020.26 1020.72 1021.00 1021.23 1021.46 1021.65 1021.81 1021.97 1022.13 1022.28 1022.37 1022.41 1022.45 1022.49 1022.57 1022.68 1022.78 1022.86 1022.86 1022.84 1022.84 1022.83 1022.87 1022.93 1022.93 1022.90 1022.86
1011.79 1012.28 1012.71 1012.56 1012.35 1012.24 1011.83 1011.91 1012.48 1013.05 1013.85 1014.01 1014.69 1016.47 1017.44 1017.44 1017.53 1017.78 1018.33 1018.98 1019.39 1019.67 1020.12 1020.66 1021.07 1021.31 1021.53 1021.72 1021.88 1022.06 1022.16 1022.29 1022.36 1022.45 1022.54 1022.62 1022.66 1022.72 1022.74 1022.82 1022.82 1022.82 1022.79 1022.77 1022.80 1022.79 1022.80 1022.74 1022.70
1011.64 1012.52 1012.96 1012.89 1012.27 1012.08 1011.63 1012.20 1012.69 1013.08 1013.61 1014.27 1014.72 1015.31 1015.81 1016.84 1017.47 1018.08 1018.54 1019.12 1019.73 1019.95 1020.09 1020.46 1020.87 1021.12 1021.39 1021.70 1021.97 1022.21 1022.32 1022.43 1022.50 1022.54 1022.59 1022.64 1022.69 1022.66 1022.79 1022.77 1022.77 1022.75 1022.73 1022.70 1022.70 1022.72 1022.68 1022.54 1022.50
1012.12 1012.95 1013.26 1013.15 1012.59 1012.16 1012.06 1012.22 1012.71 1013.58 1014.23 1015.22 1015.58 1015.84 1016.39 1016.84 1017.61 1018.25 1018.69 1019.17 1019.57 1019.89 1020.14 1020.13 1020.55 1020.88 1021.23 1021.35 1021.88 1022.05 1022.16 1022.33 1022.38 1022.42 1022.49 1022.51 1022.49 1022.47 1022.64 1022.64 1022.59 1022.55 1022.53 1022.51 1022.54 1022.52 1022.38 1022.37 1022.52
1012.39 1013.16 1013.31 1013.44 1013.11 1012.44 1012.55 1012.72 1012.82 1013.66 1014.67 1014.91 1015.68 1016.45 1016.84 1017.26 1017.83 1018.29 1018.65 1018.91 1019.19 1019.43 1019.69 1019.95 1020.10 1020.37 1020.71 1021.15 1021.51 1021.65 1021.76 1022.00 1022.08 1022.12 1022.30 1022.24 1022.16 1022.29 1022.29 1022.45 1022.47 1022.54 1022.57 1022.57 1022.47 1022.43 1022.44 1022.54 1022.51
1012.79 1013.37 1013.42 1013.71 1013.42 1012.95 1013.30 1013.15 1013.47 1013.97 1014.37 1014.33 1014.95 1015.61 1016.55 1017.28 1017.68 1017.98 1018.33 1018.61 1018.81 1019.16 1019.36 1019.58 1019.67 1020.00 1020.31 1020.66 1021.07 1020.90 1021.14 1021.47 1021.87 1021.98 1022.06 1022.19 1022.37 1022.33 1022.38 1022.57 1022.67 1022.63 1022.57 1022.61 1022.50 1022.47 1022.40 1022.39 1022.31
1013.04 1013.64 1013.92 1014.01 1013.84 1013.83 1013.67 1013.93 1014.10 1014.44 1014.43 1014.20 1015.03 1015.80 1016.36 1017.00 1017.42 1017.68 1017.81 1018.10 1018.47 1018.90 1019.13 1019.41 1019.62 1019.92 1020.14 1020.51 1020.66 1020.98 1021.14 1021.24 1021.41 1021.61 1021.72 1022.11 1022.53 1022.71 1022.60 1022.58 1022.48 1022.51 1022.43 1022.35 1022.24 1022.23 1022.20 1022.18 1022.07
1013.34 1013.86 1014.36 1014.42 1014.38 1014.39 1014.36 1014.65 1014.30 1014.56 1014.69 1014.83 1015.39 1015.92 1016.36 1016.67 1016.99 1017.42 1017.63 1017.88 1018.14 1018.54 1018.82 1019.17 1019.62 1019.68 1019.87 1020.16 1020.49 1020.82 1020.96 1021.17 1021.36 1021.73 1022.08 1022.32 1022.50 1022.71 1022.72 1022.55 1022.56 1022.46 1022.40 1022.28 1022.04 1021.95 1021.92 1021.90 1021.87
1013.87 1014.58 1014.84 1014.96 1015.00 1015.18 1014.98 1015.41 1015.12 1014.69 1014.80 1015.37 1015.71 1015.97 1016.27 1016.43 1016.66 1016.98 1017.26 1017.65 1017.87 1018.38 1018.84 1019.28 1019.60 1019.77 1019.91 1020.23 1020.48 1020.74 1021.02 1021.42 1021.98 1022.32 1022.53 1022.57 1022.69 1022.88 1022.77 1022.72 1022.59 1022.59 1022.39 1022.24 1022.07 1021.95 1021.91 1021.97 1021.77
1014.52 1015.07 1015.44 1015.41 1015.41 1015.54 1015.42 1015.76 1015.36 1015.16 1015.21 1015.68 1015.90 1016.01 1016.11 1016.28 1016.35 1016.54 1016.90 1017.32 1017.85 1018.52 1019.08 1019.34 1019.62 1020.08 1020.29 1020.47 1020.86 1021.12 1021.53 1021.98 1022.57 1022.81 1022.91 1022.92 1023.13 1023.11 1023.07 1022.96 1022.84 1022.67 1022.42 1022.24 1022.24 1022.30 1022.21 1022.24 1022.19
1015.35 1015.57 1015.69 1015.79 1015.55 1015.70 1015.78 1015.98 1015.74 1015.54 1015.63 1015.99 1016.07 1016.32 1016.19 1016.20 1016.57 1016.69 1017.03 1017.35 1018.08 1018.58 1019.15 1019.66 1019.97 1020.44 1020.82 1020.91 1021.18 1021.58 1022.14 1022.59 1023.09 1023.27 1023.44 1023.54 1023.53 1023.40 1023.36 1023.17 1023.10 1022.76 1022.77 1022.81 1022.76 1022.76 1022.69 1022.57 1022.47
1015.40 1015.47 1015.59 1015.87 1015.99 1016.04 1016.24 1016.27 1016.10 1015.99 1016.06 1016.44 1016.40 1016.32 1016.42 1016.41 1017.05 1017.23 1017.66 1018.00 1018.54 1019.00 1019.49 1019.93 1020.45 1020.92 1021.00 1021.22 1021.58 1022.16 1022.78 1023.36 1023.65 1023.89 1024.02 1023.96 1023.84 1023.70 1023.61 1023.76 1023.62 1023.40 1023.24 1023.39 1023.44 1023.42 1023.08 1023.07 1022.95
1014.63 1015.04 1015.71 1016.50 1016.46 1016.52 1016.63 1016.75 1016.29 1016.34 1016.45 1016.53 1016.68 1016.51 1016.56 1016.78 1017.48 1017.63 1017.95 1018.46 1019.07 1019.54 1019.89 1020.24 1020.70 1021.15 1021.29 1021.53 1021.98 1022.47 1023.31 1023.95 1024.27 1024.33 1024.35 1024.35 1024.20 1024.10 1024.07 1024.16 1024.15 1024.02 1024.00 1024.07 1023.85 1023.60 1023.63 1023.43 1023.28
1014.93 1015.24 1016.28 1017.14 1017.05 1017.02 1017.21 1017.08 1016.58 1016.18 1015.88 1015.99 1016.29 1016.49 1016.69 1017.45 1018.09 1018.36 1018.51 1018.71 1019.19 1019.82 1020.25 1020.54 1020.86 1021.29 1021.44 1021.43 1021.67 1022.22 1023.15 1024.00 1024.35 1024.60 1024.75 1024.77 1024.66 1024.54 1024.40 1024.53 1024.56 1024.46 1024.38 1024.38 1024.28 1024.12 1024.05 1023.97 1023.70
1015.41 1015.71 1016.49 1017.08 1017.52 1017.74 1017.82 1017.54 1016.51 1015.41 1015.36 1015.48 1015.75 1015.96 1016.57 1017.40 1018.18 1018.69 1018.94 1019.23 1019.59 1020.09 1020.58 1020.93 1021.24 1021.55 1021.62 1021.57 1021.81 1022.57 1023.26 1023.99 1024.60 1024.90 1025.20 1025.26 1025.06 1025.01 1024.87 1024.79 1024.79 1024.88 1024.93 1025.08 1024.96 1024.77 1024.63 1024.63 1024.32
1015.82 1015.95 1016.70 1017.61 1018.22 1018.74 1018.48 1017.87 1016.52 1015.48 1015.28 1015.32 1015.67 1016.04 1016.56 1017.20 1018.15 1018.62 1018.97 1019.49 1019.94 1020.56 1020.93 1021.26 1021.57 1021.80 1021.83 1021.67 1022.01 1022.37 1023.00 1023.96 1024.56 1025.01 1025.43 1025.47 1025.37 1025.37 1025.35 1025.27 1025.26 1025.31 1025.35 1025.44 1025.24 1025.11 1025.00 1024.86 1025.07
1016.12 1016.39 1017.52 1018.39 1019.27 1019.74 1019.57 1019.17 1016.62 1015.93 1015.78 1015.68 1015.98 1016.52 1017.01 1017.74 1018.07 1018.77 1019.45 1020.01 1020.52 1020.97 1021.41 1021.57 1021.89 1022.14 1022.09 1022.03 1022.21 1022.56 1023.33 1024.00 1024.61 1025.11 1025.49 1025.82 1025.80 1025.73 1025.72 1025.67 1025.64 1025.63 1025.63 1025.74 1025.77 1025.72 1025.64 1025.58 1025.76
1016.63 1017.59 1018.97 1019.93 1020.96 1021.36 1019.90 1019.30 1017.34 1016.35 1015.54 1015.91 1016.57 1017.09 1017.52 1018.31 1018.73 1019.24 1019.80 1020.46 1021.10 1021.44 1021.71 1021.93 1022.22 1022.41 1022.45 1022.39 1022.48 1022.82 1023.47 1024.16 1024.74 1025.27 1025.76 1026.09 1026.21 1026.22 1026.07 1026.02 1026.01 1025.98 1026.01 1026.10 1026.19 1026.21 1026.28 1026.37 1026.45
1017.13 1018.48 1021.02 1022.20 1022.50 1021.28 1020.36 1019.88 1016.88 1016.16 1015.79 1016.00 1016.88 1017.60 1018.00 1018.60 1019.36 1019.99 1020.48 1021.03 1021.47 1021.71 1022.00 1022.27 1022.52 1022.87 1022.84 1022.75 1022.91 1023.22 1023.66 1024.15 1024.71 1025.22 1025.72 1026.19 1026.44 1026.55 1026.50 1026.39 1026.40 1026.35 1026.31 1026.35 1026.42 1026.57 1026.75 1026.82 1026.86
1017.68 1018.27 1019.74 1021.29 1022.37 1021.61 1020.83 1019.34 1016.82 1016.16 1016.31 1016.74 1017.28 1017.80 1018.44 1019.02 1019.64 1020.38 1020.81 1021.17 1021.52 1021.78 1022.13 1022.50 1022.87 1023.17 1023.26 1023.30 1023.46 1023.60 1023.94 1024.44 1024.92 1025.25 1025.70 1026.12 1026.39 1026.51 1026.61 1026.73 1026.80 1026.82 1026.79 1026.81 1026.89 1027.03 1027.17 1027.42 1027.43
1017.81 1018.47 1019.25 1020.86 1022.41 1021.92 1020.26 1018.65 1017.15 1017.03 1017.08 1017.26 1017.78 1018.22 1018.63 1019.29 1019.86 1020.28 1020.89 1021.28 1021.64 1021.94 1022.32 1022.66 1023.07 1023.43 1023.60 1023.75 1023.89 1024.14 1024.39 1024.75 1025.18 1025.56 1025.88 1026.32 1026.56 1026.64 1026.88 1026.99 1027.09 1027.09 1027.06 1027.10 1027.22 1027.45 1027.57 1027.71 1027.76
1017.30 1018.08 1019.54 1020.77 1022.09 1022.01 1020.16 1018.77 1017.15 1017.19 1017.20 1017.44 1017.91 1018.30 1018.69 1019.22 1019.69 1020.21 1020.58 1021.13 1021.58 1021.90 1022.30 1022.71 1023.08 1023.56 1023.87 1024.08 1024.23 1024.46 1024.80 1025.13 1025.53 1025.91 1026.30 1026.60 1026.78 1026.92 1027.09 1027.21 1027.34 1027.50 1027.58 1027.59 1027.72 1027.88 1027.96 1028.09 1028.26
1017.70 1017.98 1018.88 1019.81 1020.55 1020.37 1019.93 1018.15 1016.19 1016.11 1016.45 1016.85 1017.31 1017.89 1018.47 1019.08 1019.43 1019.95 1020.35 1020.90 1021.36 1021.81 1022.25 1022.72 1023.25 1023.70 1024.12 1024.28 1024.51 1024.77 1025.13 1025.46 1025.79 1026.17 1026.61 1026.84 1027.01 1027.15 1027.28 1027.40 1027.54 1027.71 1027.88 1028.00 1028.25 1028.49 1028.61 1028.68 1028.79
1017.44 1017.73 1018.14 1019.33 1020.09 1019.98 1019.30 1017.50 1015.87 1015.61 1015.93 1016.36 1016.93 1017.43 1018.11 1018.47 1019.10 1019.65 1020.11 1020.65 1021.29 1021.73 1022.21 1022.67 1023.21 1023.66 1023.97 1024.22 1024.52 1024.87 1025.22 1025.62 1026.03 1026.35 1026.55 1026.66 1026.92 1026.98 1027.17 1027.39 1027.67 1027.86 1028.11 1028.25 1028.35 1028.65 1028.82 1028.87 1029.04
Wind_Speed
6 6 2 4 5 2 2 2 6 6 5 1 2 12 9 4 3 6 8 15 16 13 9 8 11 10 11 12 11 10 10 12 12 12 13 13 13 14 14 13 11 11 11 13 11 12 12 12 12
3 4 3 2 4 2 3 4 7 5 7 7 10 5 7 4 5 13 10 15 16 13 10 8 11 11 12 11 10 9 8 11 11 12 12 12 13 14 12 12 12 10 10 9 11 10 10 10 10
4 4 4 4 2 5 5 4 8 6 8 5 5 5 5 4 5 5 16 16 15 13 11 9 12 12 11 10 9 7 4 11 11 11 11 12 11 11 11 12 11 11 9 9 10 9 8 9 8
2 4 4 4 3 6 9 8 10 6 4 7 8 7 6 5 6 9 18 16 14 13 12 12 13 13 12 10 9 8 10 11 9 8 7 9 10 10 10 10 10 10 10 11 11 9 8 6 6
3 3 2 2 4 3 7 10 9 6 5 6 6 3 5 5 10 13 13 15 14 11 10 11 13 13 13 12 10 9 8 8 7 5 4 5 9 9 8 8 8 8 8 8 7 6 5 4 4
2 3 3 1 3 5 4 10 9 6 6 6 8 7 2 7 7 7 10 14 13 12 9 9 10 11 11 11 9 8 7 7 6 4 2 3 10 8 7 5 5 4 4 4 4 3 2 2 2
4 4 3 1 1 5 8 8 9 8 6 5 10 7 6 6 8 7 10 13 12 11 9 6 6 6 8 8 8 8 7 6 5 4 5 7 7 7 5 3 2 1 1 1 1 1 1 3 4
4 4 2 4 6 3 6 5 6 11 2 7 8 7 7 7 10 8 12 11 11 10 9 8 6 6 5 5 8 7 6 5 4 4 4 3 4 4 4 3 2 2 1 2 2 3 4 6 6
2 5 1 4 5 6 5 7 3 3 7 5 3 7 12 14 10 7 9 9 8 7 9 8 8 7 6 5 5 6 5 4 4 4 4 3 3 4 4 4 5 4 4 5 5 5 6 8 7
4 4 2 3 4 4 4 8 7 7 6 6 7 9 15 13 9 11 8 7 7 8 7 8 8 7 7 7 6 5 5 4 4 5 5 4 3 4 5 6 8 7 7 7 8 8 10 7 3
3 4 4 3 4 3 5 4 4 11 4 8 17 15 12 9 8 9 9 10 9 8 6 10 9 7 7 6 5 3 4 3 3 5 5 5 3 3 3 2 3 3 5 3 4 5 4 3 3
6 4 4 2 6 4 4 2 5 4 4 7 19 20 11 11 11 10 10 10 10 8 8 8 8 7 7 6 5 5 4 4 3 4 5 2 1 1 2 0 2 3 2 4 4 2 4 4 5
5 3 5 3 6 6 4 5 4 5 3 10 14 15 15 11 9 8 9 10 10 9 8 8 8 7 6 5 3 3 4 4 5 4 5 3 3 3 3 2 2 2 3 3 4 3 3 4 5
3 7 6 4 5 5 5 2 2 2 6 10 11 10 11 13 11 7 8 9 10 10 9 8 6 4 4 4 4 3 3 2 3 4 5 6 4 3 4 3 3 3 3 3 3 4 3 4 3
7 6 5 2 2 2 1 2 4 2 6 9 9 9 9 11 10 10 9 8 9 7 8 8 8 6 7 6 5 5 4 5 5 5 6 6 6 4 3 3 3 3 3 5 4 4 2 3 3
5 5 4 1 4 1 3 3 2 4 7 7 7 6 8 9 11 10 9 9 9 11 9 8 7 7 7 7 5 5 5 6 6 5 4 7 6 5 3 3 3 4 3 3 4 4 4 3 4
0 5 4 2 2 3 3 4 2 2 5 6 4 5 8 8 5 4 7 9 8 10 9 8 7 7 6 7 5 7 9 7 6 6 5 6 5 5 3 3 4 5 5 5 4 3 3 2 3
7 5 5 6 5 3 3 5 2 2 4 7 6 6 5 7 7 9 11 11 9 8 8 8 6 5 5 5 5 6 7 6 5 4 4 6 5 6 5 5 6 5 5 5 4 4 3 2 3
7 5 7 1 2 4 5 4 9 7 5 7 8 8 6 6 7 7 9 9 10 8 8 7 7 4 3 2 4 4 4 4 4 4 6 6 5 6 6 4 5 4 5 4 5 3 3 4 3
3 4 4 3 1 2 2 8 9 7 8 10 11 9 8 6 6 6 7 6 6 7 7 7 6 4 2 2 3 4 4 3 4 3 5 6 6 6 6 5 4 5 4 5 5 5 2 2 4
3 6 6 7 4 1 1 6 7 8 8 5 7 7 8 11 11 7 8 7 8 8 7 7 6 4 2 6 7 7 6 4 3 3 4 4 6 6 5 5 5 5 4 4 4 4 5 1 2
5 4 8 9 5 3 2 7 6 3 5 7 7 8 8 7 6 5 7 8 8 6 7 7 6 4 2 3 5 6 4 4 2 3 3 4 5 6 6 6 5 5 4 5 4 4 3 2 2
4 10 8 5 5 4 3 0 9 2 4 6 6 5 7 7 6 10 8 7 7 7 7 6 5 3 2 3 6 5 6 5 4 4 6 5 5 6 6 6 5 5 4 4 6 5 6 4 3
7 12 10 7 4 1 8 7 6 4 6 4 4 6 7 7 6 7 7 9 6 6 6 6 6 3 3 5 7 8 10 8 6 5 4 3 3 4 5 5 5 5 5 5 4 5 7 5 5
7 7 4 4 3 7 3 3 7 4 1 6 9 7 6 7 8 7 9 7 6 7 6 6 6 4 5 7 7 7 8 7 8 6 4 5 2 2 3 3 5 3 4 5 5 5 6 5 4
9 6 7 9 6 4 3 8 7 2 6 6 6 7 5 6 7 7 7 7 7 7 7 6 7 6 6 6 7 6 7 5 4 5 4 4 3 3 3 4 5 6 5 5 5 3 4 5 4
6 4 3 7 3 4 5 6 5 2 2 4 6 6 6 6 7 8 7 7 7 7 7 7 7 6 6 6 6 6 6 7 6 6 5 4 4 3 4 5 5 5 5 5 5 4 4 4 4
4 7 4 4 4 4 5 4 6 7 9 7 6 7 7 6 7 7 7 7 6 7 6 7 7 7 6 6 6 5 6 6 6 5 6 5 4 4 5 5 5 5 5 5 5 4 4 5 3
3 3 4 4 5 6 3 7 6 8 9 10 9 8 8 8 8 7 7 7 7 7 7 7 7 7 6 6 5 6 6 6 6 5 5 5 4 4 5 4 4 4 4 4 5 5 5 5 5
2 5 6 6 5 2 3 6 3 4 8 8 8 8 8 7 8 7 7 8 7 7 7 7 7 7 7 6 6 6 6 6 6 6 6 6 6 5 5 5 5 4 4 4 4 4 4 5 4
Wind_Direction
326 151 114 43 45 66 252 55 128 95 59 49 87 88 109 64 54 148 122 117 126 125 124 118 113 113 115 104 99 99 99 96 89 86 86 88 85 88 78 71 70 69 73 91 83 80 76 71 65
298 181 37 81 88 5 293 139 96 110 136 107 78 107 53 56 53 120 108 131 126 126 124 116 113 113 105 101 97 96 106 104 91 88 86 91 86 77 72 69 70 70 74 85 91 87 82 73 63
241 177 90 118 177 177 163 126 126 125 126 103 89 73 93 110 109 122 130 136 133 129 127 125 118 116 108 105 100 95 143 110 97 96 91 87 87 83 80 76 71 70 48 115 98 89 91 78 59
192 18 18 97 273 276 126 159 134 120 57 81 115 62 56 230 137 142 135 135 121 127 128 129 127 125 121 116 110 97 96 104 105 110 111 111 100 93 89 86 78 74 63 68 78 76 64 58 50
41 76 48 79 293 50 108 131 120 110 120 96 98 92 74 19 115 126 123 127 120 125 130 133 135 134 133 131 128 120 110 107 113 111 63 105 128 112 103 97 90 83 78 77 81 79 76 65 48
39 98 64 252 216 127 116 146 127 119 142 126 85 100 69 136 109 138 118 129 128 131 131 135 140 141 140 139 134 130 127 123 118 106 59 71 131 123 115 113 106 100 97 93 93 96 81 48 28
116 90 205 7 166 99 157 138 120 129 124 144 149 102 156 135 153 148 119 130 132 133 129 128 137 140 141 140 139 135 125 121 123 111 69 102 102 112 120 118 123 107 221 201 249 216 264 288 293
107 114 317 204 168 146 154 102 114 112 151 121 135 150 181 184 154 142 123 125 128 134 138 146 147 149 152 154 148 143 135 134 133 131 121 126 149 167 173 169 209 203 230 267 282 278 272 281 284
72 71 272 327 155 185 141 102 12 81 92 48 40 153 145 147 133 115 120 132 130 143 149 151 159 170 170 155 152 142 144 159 170 176 192 212 224 219 205 192 194 219 236 247 253 259 265 268 274
90 106 154 304 330 136 97 103 122 99 84 46 58 73 128 135 137 141 146 139 151 158 165 162 165 177 164 160 155 171 174 198 198 199 204 212 225 171 175 195 210 222 233 242 251 245 245 259 289
112 137 159 347 332 9 111 88 94 122 144 165 147 143 146 141 145 150 160 160 165 172 164 170 171 173 161 148 178 177 175 183 214 199 188 213 174 172 205 194 224 231 253 261 272 260 271 289 273
99 52 105 3 357 56 79 106 85 101 169 179 159 154 149 158 165 169 174 172 166 167 169 170 167 160 173 159 186 187 178 178 169 173 176 168 270 247 334 275 283 250 247 264 261 255 264 265 266
96 129 63 102 64 55 73 61 142 120 119 110 135 155 158 163 171 185 184 178 164 164 167 170 160 166 169 173 179 160 203 158 175 181 187 118 52 355 337 330 309 279 285 260 262 248 253 271 271
114 104 127 72 69 49 83 50 97 156 127 106 134 161 167 170 180 185 190 179 162 163 164 160 148 131 156 160 156 122 115 128 97 65 70 62 62 36 3 347 350 355 359 316 295 250 249 263 265
131 93 91 120 154 92 76 60 207 171 116 136 156 163 183 183 181 188 187 162 151 143 128 117 117 107 104 116 110 92 85 85 88 73 53 57 50 25 5 356 10 344 329 339 354 331 325 320 323
100 81 120 211 143 273 116 236 256 273 147 163 179 206 188 205 190 184 169 153 131 123 117 108 94 83 83 87 84 81 74 73 64 59 53 54 39 26 14 14 1 331 335 10 26 7 7 34 32
219 163 153 188 194 135 143 198 194 58 130 185 232 242 228 215 172 123 106 120 117 123 121 102 96 100 96 96 92 82 76 74 67 55 46 40 30 16 20 17 8 6 33 32 13 2 12 9 7
176 161 150 168 211 151 162 240 223 207 168 216 244 265 267 194 151 126 110 97 102 103 104 106 105 112 122 110 98 86 79 69 61 62 55 42 34 30 34 31 30 15 35 28 12 7 343 13 27
133 139 118 52 334 130 219 258 255 232 216 211 225 243 244 197 144 127 117 112 105 100 108 116 119 143 146 127 126 111 95 85 67 61 63 54 42 40 45 44 31 21 55 38 20 351 16 24 23
104 122 93 57 124 123 197 266 254 236 221 198 201 217 227 117 131 128 124 119 118 128 121 122 128 132 126 144 123 117 131 95 114 91 61 54 50 41 58 53 43 39 52 38 28 25 349 32 5
160 163 156 144 176 124 30 283 247 257 245 200 210 189 199 164 165 161 151 146 132 130 136 126 123 125 120 115 105 97 99 93 93 75 64 46 55 50 54 53 54 48 46 43 33 22 39 25 344
164 152 118 123 103 218 125 277 291 217 207 201 203 199 190 156 173 170 154 148 144 132 115 109 111 126 113 130 132 143 132 133 124 112 107 74 57 53 50 54 56 58 54 50 33 33 37 95 28
175 119 117 104 90 81 265 1 270 159 225 213 201 143 120 108 143 170 159 132 122 122 124 122 112 105 110 127 136 118 103 107 115 114 113 97 63 55 54 58 59 60 56 51 49 34 35 31 62
130 80 48 47 73 309 212 169 264 209 210 154 141 135 119 94 87 110 110 119 118 121 123 123 127 129 97 95 122 120 126 131 126 128 119 108 82 53 52 60 61 60 61 60 56 50 47 44 51
95 82 34 8 357 226 354 193 248 243 186 152 153 156 137 114 122 123 130 139 143 150 144 140 136 121 97 89 96 113 126 125 130 137 136 132 112 59 53 64 60 57 67 69 70 67 63 56 79
171 160 158 195 193 217 353 225 253 178 126 105 124 160 150 137 146 152 161 164 167 164 165 141 137 117 104 101 100 103 107 109 115 120 122 127 131 123 85 74 62 54 60 67 67 65 73 67 69
223 178 148 104 29 68 216 279 301 128 154 157 159 155 176 169 161 172 179 179 175 163 157 146 135 126 121 118 108 102 111 114 120 122 116 117 113 110 87 82 81 69 75 83 84 86 86 78 74
145 159 70 347 126 248 267 264 235 211 211 204 197 202 196 176 173 180 176 175 168 155 146 138 139 140 141 129 122 119 122 124 124 117 118 114 109 96 98 90 83 69 67 89 94 88 83 87 65
150 188 188 131 152 168 159 255 217 221 195 196 204 196 184 183 186 172 175 171 157 149 147 147 144 141 142 138 132 129 133 129 120 115 120 123 116 117 105 103 100 97 89 89 89 85 83 81 72
222 197 154 134 226 226 147 272 327 152 179 177 195 186 183 180 177 179 174 158 158 163 158 156 156 155 164 158 151 152 144 133 129 135 146 145 137 133 138 122 111 103 94 93 106 104 110 114 105